This demonstration page uses our WeatherBlox Daily Observations layout. Learn more.

Hourly Observations for December 14, 2017

Temp ( °F °C ) Dew Point ( °F °C ) Humidity (%) Winds ( mph kmh ) Pressure ( in mb ) Visibility ( mi km ) Precip ( " mm )
12:15 am 00:15 Clear 34 1.3 24 -4.5 66 66 NNW 6 9 30.15 1021 10 16.09344 0 0
12:35 am 00:35 Clear 33 0.7 24 -4.5 69 69 N 6 9 30.15 1021 10 16.09344 0 0
12:55 am 00:55 Clear 32 0.2 24 -4.4 72 72 N 5 7 30.15 1021 10 16.09344 0 0
1:15 am 01:15 Clear 32 0 24 -4.6 71 71 N 5 7 30.18 1022 10 16.09344 0 0
1:35 am 01:35 Clear 29 -1.9 22 -5.5 77 77 NNE 6 9 30.18 1022 10 16.09344 0 0
1:55 am 01:55 Clear 29 -1.4 24 -4.5 80 80 NNE 5 7 30.18 1022 10 16.09344 0 0
2:15 am 02:15 Partly Cloudy 31 -0.5 25 -4.1 77 77 NNE 5 7 30.18 1022 10 16.09344 0 0
2:35 am 02:35 Partly Cloudy 30 -0.9 25 -4.1 79 79 Calm 30.21 1023 10 16.09344 0 0
2:55 am 02:55 Partly Cloudy 30 -1.2 24 -4.3 80 80 Calm 30.21 1023 10 16.09344 0 0
3:15 am 03:15 Mostly Cloudy 30 -1.1 25 -4.1 80 80 Calm 30.21 1023 10 16.09344 0 0
3:35 am 03:35 Mostly Cloudy 29 -1.5 24 -4.2 82 82 W 5 7 30.21 1023 10 16.09344 0 0
3:55 am 03:55 Partly Cloudy 29 -1.5 24 -4.2 82 82 W 3 6 30.21 1023 10 16.09344 0 0
4:15 am 04:15 Partly Cloudy 30 -1.2 25 -4 82 82 W 3 6 30.18 1022 10 16.09344 0 0
4:35 am 04:35 Partly Cloudy 30 -1.2 25 -4 82 82 W 3 6 30.21 1023 10 16.09344 0 0
4:55 am 04:55 Partly Cloudy 31 -0.7 26 -3.3 83 83 W 3 6 30.18 1022 10 16.09344 0 0
5:15 am 05:15 Partly Cloudy 30 -1.2 25 -3.7 83 83 WSW 5 7 30.18 1022 10 16.09344 0 0
5:35 am 05:35 Mostly Cloudy 31 -0.3 26 -3.1 82 82 WSW 3 6 30.18 1022 10 16.09344 0 0
5:55 am 05:55 Cloudy 32 -0.2 26 -3.3 80 80 W 6 9 30.18 1022 10 16.09344 0 0
6:15 am 06:15 Cloudy 32 0.1 25 -4 74 74 W 7 11 30.18 1022 10 16.09344 0 0
6:35 am 06:35 Cloudy 33 0.6 25 -4 72 72 W 7 11 30.15 1021 10 16.09344 0 0
6:55 am 06:55 Cloudy 35 1.5 25 -4 67 67 W 9 15 30.15 1021 10 16.09344 0 0
7:15 am 07:15 Cloudy 35 1.5 25 -4 67 67 W 10 17 30.18 1022 10 16.09344 0 0
7:35 am 07:35 Cloudy 35 1.7 25 -3.8 67 67 W 10 17 30.18 1022 10 16.09344 0 0
7:55 am 07:55 Cloudy 34 1.2 25 -3.9 69 69 W 8 13 30.18 1022 10 16.09344 0 0
8:15 am 08:15 Partly Cloudy 34 1 25 -3.7 71 71 W 6 9 30.18 1022 10 16.09344 0 0
8:35 am 08:35 Partly Cloudy 34 1 26 -3.5 72 72 W 7 11 30.18 1022 10 16.09344 0 0
8:55 am 08:55 Cloudy 35 1.8 27 -3 71 71 W 7 11 30.18 1022 10 16.09344 0 0
9:15 am 09:15 Cloudy 36 2.4 29 -1.6 75 75 WNW 9 15 30.18 1022 10 16.09344 0 0
9:35 am 09:35 Cloudy 39 3.7 32 0 77 77 NW 15 24 30.15 1021 10 16.09344 0 0
9:55 am 09:55 Cloudy 39 3.8 32 0 77 77 NW 15 24 30.15 1021 10 16.09344 0 0
10:15 am 10:15 Cloudy with Light Drizzle 39 3.7 33 0.8 82 82 NW 15 24 30.15 1021 10 16.09344 0 0
10:35 am 10:35 Cloudy with Light Drizzle 38 3.6 34 1.1 84 84 NNW 13 20 30.15 1021 10 16.09344 0 0
10:55 am 10:55 Cloudy 39 3.9 34 1.1 82 82 NW 14 22 30.18 1022 10 16.09344 0 0
11:15 am 11:15 Cloudy 40 4.5 33 0.8 77 77 NNW 13 20 30.15 1021 10 16.09344 0 0
11:35 am 11:35 Cloudy 40 4.7 34 1 77 77 NNW 14 22 30.15 1021 10 16.09344 0 0
11:55 am 11:55 Cloudy 40 4.5 33 0.7 77 77 NNW 16 26 30.15 1021 10 16.09344 0 0
12:15 pm 12:15 Cloudy with Light Drizzle 40 4.3 33 0.7 78 78 WNW 13 20 30.15 1021 10 16.09344 0 0
12:35 pm 12:35 Cloudy 40 4.2 34 1 80 80 NW 14 22 30.15 1021 10 16.09344 0 0
12:55 pm 12:55 Cloudy 41 5.1 33 0.6 73 73 NNW 16 26 30.15 1021 10 16.09344 0 0
1:15 pm 13:15 Cloudy 40 4.5 32 0.1 73 73 NW 18 30 30.15 1021 10 16.09344 0 0
1:35 pm 13:35 Cloudy with Light Rain 39 3.7 33 0.6 80 80 NNW 20 31 30.15 1021 10 16.09344 0 0
1:55 pm 13:55 Cloudy 39 4 32 0 75 75 NNW 21 33 30.15 1021 10 16.09344 0 0
2:15 pm 14:15 Cloudy 39 4 32 0 75 75 NNW 22 35 30.15 1021 10 16.09344 0 0
2:35 pm 14:35 Cloudy 38 3.6 32 -0.1 77 77 NNW 20 31 30.15 1021 10 16.09344 0 0
2:55 pm 14:55 Cloudy 38 3.5 31 -0.5 75 75 NNW 21 33 30.18 1022 10 16.09344 0 0
3:15 pm 15:15 Cloudy 38 3.5 31 -0.4 76 76 NNW 23 37 30.21 1023 10 16.09344 0 0
3:35 pm 15:35 Cloudy with Light Rain 37 2.9 31 -0.3 80 80 NNW 23 37 30.21 1023 10 16.09344 0 0
3:55 pm 15:55 Cloudy 37 3 31 -0.6 77 77 NNW 20 31 30.21 1023 10 16.09344 0 0
4:15 pm 16:15 Cloudy 37 2.8 31 -0.8 77 77 N 17 28 30.21 1023 10 16.09344 0 0
4:35 pm 16:35 Cloudy 37 2.5 30 -1.2 77 77 N 20 31 30.21 1023 10 16.09344 0 0
4:55 pm 16:55 Cloudy 37 2.5 29 -1.5 75 75 N 17 28 30.21 1023 10 16.09344 0 0
5:15 pm 17:15 Cloudy 37 2.5 29 -1.7 74 74 NNW 14 22 30.21 1023 10 16.09344 0 0
5:35 pm 17:35 Cloudy 36 2.3 29 -1.7 75 75 NNW 14 22 30.21 1023 10 16.09344 0 0
5:55 pm 17:55 Cloudy 36 2.3 29 -1.9 74 74 NNW 14 22 30.21 1023 10 16.09344 0 0
6:15 pm 18:15 Cloudy 36 2.2 28 -2 74 74 NNW 12 19 30.21 1023 10 16.09344 0 0
6:35 pm 18:35 Cloudy 36 2.2 29 -1.8 75 75 NNW 12 19 30.24 1024 10 16.09344 0 0
6:55 pm 18:55 Cloudy 36 2.2 29 -1.6 76 76 NNW 10 17 30.24 1024 10 16.09344 0 0
7:15 pm 19:15 Cloudy 35 1.6 30 -1 83 83 N 14 22 30.24 1024 10 16.09344 0 0
7:35 pm 19:35 Cloudy 34 1.3 30 -1 85 85 NNW 10 17 30.24 1024 10 16.09344 0 0
7:55 pm 19:55 Cloudy 34 1.3 29 -1.5 82 82 N 13 20 30.24 1024 10 16.09344 0 0
8:15 pm 20:15 Cloudy 34 1.2 29 -1.6 82 82 N 10 17 30.3 1026 10 16.09344 0 0
8:35 pm 20:35 Cloudy 33 0.8 28 -2 82 82 NNW 9 15 30.3 1026 10 16.09344 0 0
8:55 pm 20:55 Cloudy 33 0.4 28 -2.4 82 82 NW 7 11 30.3 1026 10 16.09344 0 0
9:15 pm 21:15 Cloudy 32 0 28 -2.4 84 84 NW 6 9 30.3 1026 10 16.09344 0 0
9:35 pm 21:35 Cloudy 32 0.1 28 -2 86 86 NW 9 15 30.3 1026 10 16.09344 0 0
9:55 pm 21:55 Cloudy 33 0.5 29 -1.6 86 86 NNW 10 17 30.3 1026 10 16.09344 0 0
10:15 pm 22:15 Cloudy 33 0.5 29 -1.5 87 87 NW 8 13 30.3 1026 10 16.09344 0 0
10:35 pm 22:35 Cloudy 32 0.2 29 -1.5 89 89 WNW 6 9 30.3 1026 10 16.09344 0 0
10:55 pm 22:55 Cloudy 32 0.1 29 -1.5 89 89 NW 6 9 30.27 1025 10 16.09344 0 0
11:15 pm 23:15 Cloudy 31 -0.3 28 -2 88 88 NW 6 9 30.3 1026 10 16.09344 0 0
11:35 pm 23:35 Cloudy 32 -0.1 29 -1.7 89 89 NW 6 9 30.3 1026 10 16.09344 0 0
11:55 pm 23:55 Mostly Cloudy 32 -0.2 29 -1.7 90 90 WNW 5 7 30.27 1025 10 16.09344 0 0

Powered by AerisWeather